Regional Weather Roundup
Issued by NWS

Home | Current Version | Previous Version | Text Only | Print | Product List | Glossary On
Versions: 1 2 3 4 5 6 7 8 9 10 11 12 13 14 15 16 17 18 19 20 21 22 23 24 25 26 27 28 29 30 31 32 33 34 35 36 37 38 39 40 41 42 43 44 45 46 47 48 49 50
000
ASUS43 KMPX 250601
RWRMN
WEATHER ROUNDUP FOR MINNESOTA
NATIONAL WEATHER SERVICE TWIN CITIES/CHANHASSEN MN
100 AM CDT THU MAY 25 2017


NOTE: "FAIR" INDICATES FEW OR NO CLOUDS BELOW 12,000 FEET WITH NO
SIGNIFICANT WEATHER AND/OR OBSTRUCTIONS TO VISIBILITY. N/A MEANS
CURRENT SKY AND/OR WEATHER CONDITIONS ARE NOT AVAILABLE.

MNZ060>063-068>070-250700-
   Twin Cities Metro

CITY           SKY/WX    TMP DP  RH WIND       PRES   REMARKS
TWIN CITIES    PTCLDY    54  45  71 E3        29.70F
6HR MIN TEMP:  54; 6HR MAX TEMP:  61;

ST PAUL        PTCLDY    53  48  83 CALM      29.71S
CRYSTAL        MOCLDY    50  45  83 CALM      29.70S
EDEN PRAIRIE   MOCLDY    51  46  83 CALM      29.69S
6HR MIN TEMP:  51; 6HR MAX TEMP:  62;

$$
MNZ001>005-007-008-013>017-022>024-027-028-250700-
   Northwest Minnesota

CITY           SKY/WX    TMP DP  RH WIND       PRES   REMARKS
PARK RAPIDS    CLOUDY    54  41  61 SE7       29.68F
MAHNOMEN       FAIR      47  42  81 SE7       29.65F
$$
MNZ006-009>011-018-025>026-250700-
   North Central Minnesota

CITY           SKY/WX    TMP DP  RH WIND       PRES   REMARKS
BAUDETTE       CLEAR     46  39  76 SE7       29.70S
INTL FALLS     CLEAR     44  37  76 E6        29.73F
6HR MIN TEMP:  42; 6HR MAX TEMP:  64;

GRAND RAPIDS   CLEAR     45  40  82 E5        29.74F
WALKER         CLOUDY    52  43  70 SE5       29.71S
$$
MNZ012-019>021-037-250700-
   Northeast Minnesota

CITY           SKY/WX    TMP DP  RH WIND       PRES   REMARKS
DULUTH         CLEAR     43  41  93 E5        29.75S
6HR MIN TEMP:  43; 6HR MAX TEMP:  55;

HIBBING        CLEAR     36  36 100 CALM      29.75F
GRAND MARAIS     N/A     42  39  89 N3        29.77F
$$
MNZ029>031-032-039>041-046>048-054>057-064-250700-
   West Central Minnesota

CITY           SKY/WX    TMP DP  RH WIND       PRES   REMARKS
ALEXANDRIA     CLEAR     47  40  76 SE8       29.69F
$$
MNZ033>034-036-042>043-049>051-058-059-250700-
   Central Minnesota

CITY           SKY/WX    TMP DP  RH WIND       PRES   REMARKS
ST CLOUD       MOCLDY    52  48  86 E5        29.70S
6HR MIN TEMP:  52; 6HR MAX TEMP:  58;

BRAINERD       CLOUDY    52  44  74 VRB5      29.72S
$$
MNZ037-044-045-052-053-250700-
   East Central Minnesota

CITY           SKY/WX    TMP DP  RH WIND       PRES   REMARKS
$$
MNZ071>073-080-081-089-090-097-098-250700-
   Southwest Minnesota

CITY           SKY/WX    TMP DP  RH WIND       PRES   REMARKS
MARSHALL       CLEAR     50  47  89 SE8       29.67F
REDWOOD FALLS  CLEAR     49  44  83 SE6       29.68F
WORTHINGTON    CLEAR     46  43  89 SE7       29.68F
$$
MNZ065>067-074>077-082>085-091>093-250700-
   South Central Minnesota

CITY           SKY/WX    TMP DP  RH WIND       PRES   REMARKS
MANKATO          N/A     51  47  86 CALM      29.70F
FAIRMONT       CLEAR     50  47  89 CALM      29.70S
$$
MNZ078>079-086>088-094>096-250700-
   Southeast Minnesota

CITY           SKY/WX    TMP DP  RH WIND       PRES   REMARKS
ROCHESTER      PTCLDY    52  49  89 CALM      29.71S
6HR MIN TEMP:  51; 6HR MAX TEMP:  58;

$$
ABBREVIATIONS USED IN REMARKS
   TC - TEMPERATURES IN CELSIUS
  WCI - WIND CHILL INDEX
   HX - HEAT INDEX
  VSB - VISIBILITY
$$




USA.gov is the U.S. government's official web portal to all federal, state and local government web resources and services.